Time,TemperatureF,DewpointF,PressureIn,WindDirection,WindDirectionDegrees,WindSpeedMPH,WindSpeedGustMPH,Humidity,HourlyPrecipIn,Conditions,Clouds,dailyrainin,SoftwareType,DateUTC
2013-02-16 00:00:00,10.4,4.9,30.33,WNW,302,0.0,2.0,78,0.00,,---,0.00,VWS V14.01,2013-02-16 06:00:00,
2013-02-16 00:03:00,10.4,4.9,30.33,WNW,302,0.0,2.0,78,0.00,,---,0.00,VWS V14.01,2013-02-16 06:03:00,
2013-02-16 00:08:00,10.3,4.8,30.33,WNW,302,0.0,0.0,78,0.00,,---,0.00,VWS V14.01,2013-02-16 06:08:00,
2013-02-16 00:13:00,10.3,4.8,30.32,WNW,302,0.0,1.0,78,0.00,,---,0.00,VWS V14.01,2013-02-16 06:13:00,
2013-02-16 00:18:00,10.3,5.1,30.32,WNW,302,0.0,1.0,79,0.00,,---,0.00,VWS V14.01,2013-02-16 06:18:00,
2013-02-16 00:23:00,10.2,5.0,30.32,WNW,302,0.0,1.0,79,0.00,,---,0.00,VWS V14.01,2013-02-16 06:23:00,
2013-02-16 00:28:00,10.2,5.0,30.32,WNW,302,0.0,1.0,79,0.00,,---,0.00,VWS V14.01,2013-02-16 06:28:00,
2013-02-16 00:30:00,10.2,5.0,30.32,WNW,302,0.0,1.0,79,0.00,,---,0.00,VWS V14.01,2013-02-16 06:30:00,
2013-02-16 00:33:00,10.2,5.0,30.32,WNW,302,1.0,1.0,79,0.00,,---,0.00,VWS V14.01,2013-02-16 06:33:00,
2013-02-16 00:38:00,10.2,5.0,30.32,WNW,302,0.0,0.0,79,0.00,,---,0.00,VWS V14.01,2013-02-16 06:38:00,
2013-02-16 00:43:00,10.3,4.8,30.32,WNW,302,0.0,0.0,78,0.00,,---,0.00,VWS V14.01,2013-02-16 06:43:00,
2013-02-16 00:48:00,10.3,4.8,30.32,WNW,302,0.0,0.0,78,0.00,,---,0.00,VWS V14.01,2013-02-16 06:48:00,
2013-02-16 00:53:00,10.3,4.8,30.32,WNW,302,0.0,0.0,78,0.00,,---,0.00,VWS V14.01,2013-02-16 06:53:00,
2013-02-16 00:58:00,10.3,5.1,30.32,WNW,302,0.0,0.0,79,0.00,,---,0.00,VWS V14.01,2013-02-16 06:58:00,
2013-02-16 01:00:00,10.3,5.1,30.32,WNW,302,0.0,0.0,79,0.00,,---,0.00,VWS V14.01,2013-02-16 07:00:00,
2013-02-16 01:03:00,10.3,5.1,30.32,WNW,302,0.0,0.0,79,0.00,,---,0.00,VWS V14.01,2013-02-16 07:03:00,
2013-02-16 01:08:00,10.3,5.1,30.32,WNW,302,0.0,0.0,79,0.00,,---,0.00,VWS V14.01,2013-02-16 07:08:00,
2013-02-16 01:13:00,10.3,5.1,30.32,WNW,302,0.0,0.0,79,0.00,,---,0.00,VWS V14.01,2013-02-16 07:13:00,
2013-02-16 01:18:00,10.3,5.1,30.32,WNW,302,0.0,0.0,79,0.00,,---,0.00,VWS V14.01,2013-02-16 07:18:00,
2013-02-16 01:23:00,10.3,5.1,30.31,WNW,302,0.0,0.0,79,0.00,,---,0.00,VWS V14.01,2013-02-16 07:23:00,
2013-02-16 01:28:00,10.3,5.1,30.31,WNW,302,1.0,1.0,79,0.00,,---,0.00,VWS V14.01,2013-02-16 07:28:00,
2013-02-16 01:30:00,10.3,5.1,30.31,WNW,302,0.0,2.0,79,0.00,,---,0.00,VWS V14.01,2013-02-16 07:30:00,
2013-02-16 01:33:00,10.3,5.1,30.31,WNW,302,0.0,2.0,79,0.00,,---,0.00,VWS V14.01,2013-02-16 07:33:00,
2013-02-16 01:38:00,10.3,5.1,30.31,WNW,302,0.0,0.0,79,0.00,,---,0.00,VWS V14.01,2013-02-16 07:38:00,
2013-02-16 01:43:00,10.3,5.1,30.31,WNW,302,0.0,0.0,79,0.00,,---,0.00,VWS V14.01,2013-02-16 07:43:00,
2013-02-16 01:48:00,10.2,5.0,30.31,WNW,302,0.0,0.0,79,0.00,,---,0.00,VWS V14.01,2013-02-16 07:48:00,
2013-02-16 01:53:00,10.1,5.2,30.31,WNW,302,0.0,0.0,80,0.00,,---,0.00,VWS V14.01,2013-02-16 07:53:00,
2013-02-16 01:58:00,10.1,5.2,30.31,WNW,302,0.0,0.0,80,0.00,,---,0.00,VWS V14.01,2013-02-16 07:58:00,
2013-02-16 02:00:00,10.1,5.2,30.31,WNW,302,0.0,0.0,80,0.00,,---,0.00,VWS V14.01,2013-02-16 08:00:00,
2013-02-16 02:02:00,10.1,5.2,30.31,WNW,302,0.0,0.0,80,0.00,,---,0.00,VWS V14.01,2013-02-16 08:02:00,
2013-02-16 02:07:00,10.0,5.1,30.31,WNW,302,0.0,0.0,80,0.00,,---,0.00,VWS V14.01,2013-02-16 08:07:00,
2013-02-16 02:12:00,10.0,5.1,30.31,WNW,302,0.0,1.0,80,0.00,,---,0.00,VWS V14.01,2013-02-16 08:12:00,
2013-02-16 02:17:00,9.9,4.7,30.31,WNW,302,0.0,1.0,79,0.00,,---,0.00,VWS V14.01,2013-02-16 08:17:00,
2013-02-16 02:22:00,9.9,4.7,30.31,WNW,302,0.0,1.0,79,0.00,,---,0.00,VWS V14.01,2013-02-16 08:22:00,
2013-02-16 02:27:00,9.9,4.7,30.30,WNW,302,0.0,1.0,79,0.00,,---,0.00,VWS V14.01,2013-02-16 08:27:00,
2013-02-16 02:30:00,10.0,4.5,30.30,WNW,302,1.0,2.0,78,0.00,,---,0.00,VWS V14.01,2013-02-16 08:30:00,
2013-02-16 02:32:00,10.0,4.5,30.30,WNW,302,1.0,1.0,78,0.00,,---,0.00,VWS V14.01,2013-02-16 08:32:00,
2013-02-16 02:37:00,10.0,4.8,30.30,WNW,302,0.0,1.0,79,0.00,,---,0.00,VWS V14.01,2013-02-16 08:37:00,
2013-02-16 02:42:00,9.9,4.7,30.30,WNW,302,0.0,1.0,79,0.00,,---,0.00,VWS V14.01,2013-02-16 08:42:00,
2013-02-16 02:47:00,9.9,4.7,30.30,WNW,302,2.0,2.0,79,0.00,,---,0.00,VWS V14.01,2013-02-16 08:47:00,
2013-02-16 02:52:00,9.8,4.6,30.30,WNW,302,0.0,2.0,79,0.00,,---,0.00,VWS V14.01,2013-02-16 08:52:00,
2013-02-16 02:57:00,9.6,4.7,30.29,WNW,302,0.0,2.0,80,0.00,,---,0.00,VWS V14.01,2013-02-16 08:57:00,
2013-02-16 03:00:00,9.5,4.6,30.29,WNW,302,1.0,2.0,80,0.00,,---,0.00,VWS V14.01,2013-02-16 09:00:00,
2013-02-16 03:02:00,9.5,4.6,30.29,WNW,302,0.0,2.0,80,0.00,,---,0.00,VWS V14.01,2013-02-16 09:02:00,
2013-02-16 03:07:00,9.3,4.4,30.29,WNW,302,0.0,1.0,80,0.00,,---,0.00,VWS V14.01,2013-02-16 09:07:00,
2013-02-16 03:12:00,9.2,4.3,30.29,WNW,302,0.0,1.0,80,0.00,,---,0.00,VWS V14.01,2013-02-16 09:12:00,
2013-02-16 03:17:00,9.1,4.2,30.29,WNW,302,0.0,1.0,80,0.00,,---,0.00,VWS V14.01,2013-02-16 09:17:00,
2013-02-16 03:22:00,9.0,4.1,30.29,WNW,302,1.0,1.0,80,0.00,,---,0.00,VWS V14.01,2013-02-16 09:22:00,
2013-02-16 03:27:00,9.0,4.1,30.29,WNW,302,0.0,1.0,80,0.00,,---,0.00,VWS V14.01,2013-02-16 09:27:00,
2013-02-16 03:30:00,9.0,4.1,30.29,WNW,302,0.0,1.0,80,0.00,,---,0.00,VWS V14.01,2013-02-16 09:30:00,
2013-02-16 03:32:00,9.0,4.1,30.29,WNW,302,0.0,1.0,80,0.00,,---,0.00,VWS V14.01,2013-02-16 09:32:00,
2013-02-16 03:37:00,8.9,4.0,30.28,WNW,302,0.0,1.0,80,0.00,,---,0.00,VWS V14.01,2013-02-16 09:37:00,
2013-02-16 03:42:00,8.8,3.9,30.28,WNW,302,0.0,1.0,80,0.00,,---,0.00,VWS V14.01,2013-02-16 09:42:00,
2013-02-16 03:47:00,8.6,4.0,30.28,WNW,302,0.0,1.0,81,0.00,,---,0.00,VWS V14.01,2013-02-16 09:47:00,
2013-02-16 03:52:00,8.5,3.9,30.28,WNW,302,0.0,1.0,81,0.00,,---,0.00,VWS V14.01,2013-02-16 09:52:00,
2013-02-16 03:57:00,8.3,3.7,30.29,WNW,302,0.0,1.0,81,0.00,,---,0.00,VWS V14.01,2013-02-16 09:57:00,
2013-02-16 04:00:00,8.2,3.6,30.28,WNW,302,0.0,1.0,81,0.00,,---,0.00,VWS V14.01,2013-02-16 10:00:00,
2013-02-16 04:02:00,8.2,3.6,30.28,WNW,302,0.0,1.0,81,0.00,,---,0.00,VWS V14.01,2013-02-16 10:02:00,
2013-02-16 04:07:00,8.2,3.6,30.29,WNW,302,0.0,0.0,81,0.00,,---,0.00,VWS V14.01,2013-02-16 10:07:00,
2013-02-16 04:12:00,8.1,3.5,30.29,WNW,302,0.0,0.0,81,0.00,,---,0.00,VWS V14.01,2013-02-16 10:12:00,
2013-02-16 04:17:00,8.1,3.5,30.29,WNW,302,0.0,0.0,81,0.00,,---,0.00,VWS V14.01,2013-02-16 10:17:00,
2013-02-16 04:22:00,8.0,3.4,30.29,WNW,302,0.0,1.0,81,0.00,,---,0.00,VWS V14.01,2013-02-16 10:22:00,
2013-02-16 04:27:00,7.9,3.3,30.29,WNW,302,0.0,1.0,81,0.00,,---,0.00,VWS V14.01,2013-02-16 10:27:00,
2013-02-16 04:30:00,7.8,3.2,30.29,WNW,302,0.0,1.0,81,0.00,,---,0.00,VWS V14.01,2013-02-16 10:30:00,
2013-02-16 04:32:00,7.8,3.2,30.29,WNW,302,0.0,1.0,81,0.00,,---,0.00,VWS V14.01,2013-02-16 10:32:00,
2013-02-16 04:37:00,7.7,3.1,30.29,WNW,302,0.0,0.0,81,0.00,,---,0.00,VWS V14.01,2013-02-16 10:37:00,
2013-02-16 04:42:00,7.6,3.0,30.29,WNW,302,0.0,0.0,81,0.00,,---,0.00,VWS V14.01,2013-02-16 10:42:00,
2013-02-16 04:47:00,7.5,3.2,30.29,WNW,302,0.0,0.0,82,0.00,,---,0.00,VWS V14.01,2013-02-16 10:47:00,
2013-02-16 04:52:00,7.4,3.1,30.29,WNW,302,0.0,0.0,82,0.00,,---,0.00,VWS V14.01,2013-02-16 10:52:00,
2013-02-16 04:57:00,7.4,3.1,30.28,WNW,302,0.0,0.0,82,0.00,,---,0.00,VWS V14.01,2013-02-16 10:57:00,
2013-02-16 05:00:00,7.4,3.1,30.28,WNW,302,0.0,0.0,82,0.00,,---,0.00,VWS V14.01,2013-02-16 11:00:00,
2013-02-16 05:02:00,7.3,3.0,30.28,WNW,302,0.0,0.0,82,0.00,,---,0.00,VWS V14.01,2013-02-16 11:02:00,
2013-02-16 05:07:00,7.3,3.0,30.29,WNW,302,0.0,0.0,82,0.00,,---,0.00,VWS V14.01,2013-02-16 11:07:00,
2013-02-16 05:12:00,7.3,3.0,30.29,WNW,302,0.0,0.0,82,0.00,,---,0.00,VWS V14.01,2013-02-16 11:12:00,
2013-02-16 05:17:00,7.2,2.9,30.29,WNW,302,0.0,0.0,82,0.00,,---,0.00,VWS V14.01,2013-02-16 11:17:00,
2013-02-16 05:22:00,7.2,2.9,30.29,WNW,302,0.0,0.0,82,0.00,,---,0.00,VWS V14.01,2013-02-16 11:22:00,
2013-02-16 05:27:00,7.1,2.8,30.28,WNW,302,0.0,0.0,82,0.00,,---,0.00,VWS V14.01,2013-02-16 11:27:00,
2013-02-16 05:30:00,6.9,2.6,30.28,WNW,302,0.0,0.0,82,0.00,,---,0.00,VWS V14.01,2013-02-16 11:30:00,
2013-02-16 05:32:00,6.9,2.6,30.28,WNW,302,0.0,0.0,82,0.00,,---,0.00,VWS V14.01,2013-02-16 11:32:00,
2013-02-16 05:37:00,6.8,2.5,30.28,WNW,302,0.0,0.0,82,0.00,,---,0.00,VWS V14.01,2013-02-16 11:37:00,
2013-02-16 05:42:00,6.7,2.4,30.28,WNW,302,0.0,0.0,82,0.00,,---,0.00,VWS V14.01,2013-02-16 11:42:00,
2013-02-16 05:47:00,6.6,2.3,30.28,WNW,302,0.0,0.0,82,0.00,,---,0.00,VWS V14.01,2013-02-16 11:47:00,
2013-02-16 05:52:00,6.4,4.6,30.28,WNW,302,0.0,0.0,92,0.00,,---,0.00,VWS V14.01,2013-02-16 11:52:00,
2013-02-16 05:57:00,6.3,2.0,30.28,WNW,302,0.0,0.0,82,0.00,,---,0.00,VWS V14.01,2013-02-16 11:57:00,
2013-02-16 06:00:00,6.1,1.8,30.28,WNW,302,0.0,0.0,82,0.00,,---,0.00,VWS V14.01,2013-02-16 12:00:00,
2013-02-16 06:02:00,6.1,1.8,30.28,WNW,302,0.0,0.0,82,0.00,,---,0.00,VWS V14.01,2013-02-16 12:02:00,
2013-02-16 06:07:00,6.1,2.3,30.29,WNW,302,0.0,0.0,84,0.00,,---,0.00,VWS V14.01,2013-02-16 12:07:00,
2013-02-16 06:12:00,6.0,2.2,30.29,WNW,302,0.0,0.0,84,0.00,,---,0.00,VWS V14.01,2013-02-16 12:12:00,
2013-02-16 06:17:00,5.9,2.1,30.29,WNW,302,0.0,0.0,84,0.00,,---,0.00,VWS V14.01,2013-02-16 12:17:00,
2013-02-16 06:22:00,5.8,1.8,30.29,WNW,302,0.0,0.0,83,0.00,,---,0.00,VWS V14.01,2013-02-16 12:22:00,
2013-02-16 06:27:00,5.7,1.7,30.29,WNW,302,0.0,0.0,83,0.00,,---,0.00,VWS V14.01,2013-02-16 12:27:00,
2013-02-16 06:30:00,5.6,1.8,30.29,WNW,302,0.0,0.0,84,0.00,,---,0.00,VWS V14.01,2013-02-16 12:30:00,
2013-02-16 06:32:00,5.6,1.6,30.29,WNW,302,0.0,0.0,83,0.00,,---,0.00,VWS V14.01,2013-02-16 12:32:00,
2013-02-16 06:37:00,5.6,1.6,30.29,WNW,302,0.0,0.0,83,0.00,,---,0.00,VWS V14.01,2013-02-16 12:37:00,
2013-02-16 06:42:00,5.6,1.8,30.29,WNW,302,0.0,0.0,84,0.00,,---,0.00,VWS V14.01,2013-02-16 12:42:00,
2013-02-16 06:47:00,5.6,1.8,30.29,WNW,302,0.0,0.0,84,0.00,,---,0.00,VWS V14.01,2013-02-16 12:47:00,
2013-02-16 06:52:00,5.7,1.9,30.29,WNW,302,0.0,0.0,84,0.00,,---,0.00,VWS V14.01,2013-02-16 12:52:00,
2013-02-16 06:57:00,5.7,1.9,30.29,WNW,302,0.0,0.0,84,0.00,,---,0.00,VWS V14.01,2013-02-16 12:57:00,
2013-02-16 07:00:00,5.8,2.0,30.29,WNW,302,0.0,0.0,84,0.00,,---,0.00,VWS V14.01,2013-02-16 13:00:00,
2013-02-16 07:02:00,5.8,2.0,30.29,WNW,302,0.0,0.0,84,0.00,,---,0.00,VWS V14.01,2013-02-16 13:02:00,
2013-02-16 07:07:00,5.9,2.1,30.29,WNW,302,0.0,0.0,84,0.00,,---,0.00,VWS V14.01,2013-02-16 13:07:00,
2013-02-16 07:12:00,5.9,2.1,30.29,WNW,302,0.0,0.0,84,0.00,,---,0.00,VWS V14.01,2013-02-16 13:12:00,
2013-02-16 07:17:00,5.9,2.1,30.29,WNW,302,0.0,0.0,84,0.00,,---,0.00,VWS V14.01,2013-02-16 13:17:00,
2013-02-16 07:22:00,5.9,2.1,30.29,WNW,302,0.0,0.0,84,0.00,,---,0.00,VWS V14.01,2013-02-16 13:22:00,
2013-02-16 07:27:00,6.0,2.2,30.29,WNW,302,0.0,0.0,84,0.00,,---,0.00,VWS V14.01,2013-02-16 13:27:00,
2013-02-16 07:30:00,6.1,2.3,30.29,WNW,302,0.0,0.0,84,0.00,,---,0.00,VWS V14.01,2013-02-16 13:30:00,
2013-02-16 07:32:00,6.1,2.3,30.29,WNW,302,0.0,0.0,84,0.00,,---,0.00,VWS V14.01,2013-02-16 13:32:00,
2013-02-16 07:37:00,6.2,2.4,30.29,WNW,302,0.0,0.0,84,0.00,,---,0.00,VWS V14.01,2013-02-16 13:37:00,
2013-02-16 07:42:00,6.3,2.5,30.29,WNW,302,0.0,0.0,84,0.00,,---,0.00,VWS V14.01,2013-02-16 13:42:00,
2013-02-16 07:47:00,6.4,2.6,30.29,WNW,302,0.0,0.0,84,0.00,,---,0.00,VWS V14.01,2013-02-16 13:47:00,
2013-02-16 07:52:00,6.5,2.7,30.29,WNW,302,0.0,0.0,84,0.00,,---,0.00,VWS V14.01,2013-02-16 13:52:00,
2013-02-16 07:57:00,6.7,2.9,30.29,WNW,302,0.0,0.0,84,0.00,,---,0.00,VWS V14.01,2013-02-16 13:57:00,
2013-02-16 08:00:00,6.9,3.1,30.29,WNW,302,0.0,2.0,84,0.00,,---,0.00,VWS V14.01,2013-02-16 14:00:00,
2013-02-16 08:02:00,6.9,3.1,30.29,WNW,302,0.0,2.0,84,0.00,,---,0.00,VWS V14.01,2013-02-16 14:02:00,
2013-02-16 08:07:00,7.1,3.0,30.29,WNW,302,0.0,0.0,83,0.00,,---,0.00,VWS V14.01,2013-02-16 14:07:00,
2013-02-16 08:12:00,7.3,3.2,30.29,WNW,302,1.0,1.0,83,0.00,,---,0.00,VWS V14.01,2013-02-16 14:12:00,
2013-02-16 08:17:00,7.7,3.6,30.29,WNW,302,0.0,2.0,83,0.00,,---,0.00,VWS V14.01,2013-02-16 14:17:00,
2013-02-16 08:22:00,8.0,4.2,30.29,WNW,302,0.0,2.0,84,0.00,,---,0.00,VWS V14.01,2013-02-16 14:22:00,
2013-02-16 08:27:00,8.3,4.2,30.29,WNW,302,0.0,2.0,83,0.00,,---,0.00,VWS V14.01,2013-02-16 14:27:00,
2013-02-16 08:30:00,8.4,4.1,30.29,WNW,302,0.0,2.0,82,0.00,,---,0.00,VWS V14.01,2013-02-16 14:30:00,
2013-02-16 08:32:00,8.4,4.1,30.29,WNW,302,0.0,2.0,82,0.00,,---,0.00,VWS V14.01,2013-02-16 14:32:00,
2013-02-16 08:37:00,8.5,4.2,30.29,WNW,302,0.0,1.0,82,0.00,,---,0.00,VWS V14.01,2013-02-16 14:37:00,
2013-02-16 08:42:00,8.6,4.2,30.29,WNW,302,1.0,1.0,82,0.00,,---,0.00,VWS V14.01,2013-02-16 14:42:00,
2013-02-16 08:47:00,8.8,4.4,30.28,WNW,302,0.0,1.0,82,0.00,,---,0.00,VWS V14.01,2013-02-16 14:47:00,
2013-02-16 08:52:00,8.9,4.5,30.29,SSW,209,1.0,2.0,82,0.00,,---,0.00,VWS V14.01,2013-02-16 14:52:00,
2013-02-16 08:57:00,8.9,4.5,30.29,SW,217,0.0,2.0,82,0.00,,---,0.00,VWS V14.01,2013-02-16 14:57:00,
2013-02-16 09:00:00,9.1,4.5,30.29,SW,217,0.0,2.0,81,0.00,,---,0.00,VWS V14.01,2013-02-16 15:00:00,
2013-02-16 09:02:00,9.0,4.4,30.29,SW,217,0.0,2.0,81,0.00,,---,0.00,VWS V14.01,2013-02-16 15:02:00,
2013-02-16 09:07:00,9.2,4.8,30.28,SW,217,0.0,1.0,82,0.00,,---,0.00,VWS V14.01,2013-02-16 15:07:00,
2013-02-16 09:12:00,9.3,4.7,30.28,WSW,257,1.0,5.0,81,0.00,,---,0.00,VWS V14.01,2013-02-16 15:12:00,
2013-02-16 09:17:00,9.2,4.6,30.28,West,263,0.0,5.0,81,0.00,,---,0.00,VWS V14.01,2013-02-16 15:17:00,
2013-02-16 09:22:00,9.4,4.8,30.28,West,263,0.0,5.0,81,0.00,,---,0.00,VWS V14.01,2013-02-16 15:22:00,
2013-02-16 09:27:00,9.4,4.8,30.28,West,263,0.0,5.0,81,0.00,,---,0.00,VWS V14.01,2013-02-16 15:27:00,
2013-02-16 09:30:00,9.7,5.1,30.28,West,263,0.0,5.0,81,0.00,,---,0.00,VWS V14.01,2013-02-16 15:30:00,
2013-02-16 09:32:00,9.6,4.9,30.28,West,263,0.0,5.0,81,0.00,,---,0.00,VWS V14.01,2013-02-16 15:32:00,
2013-02-16 09:37:00,9.9,5.2,30.28,West,263,0.0,0.0,81,0.00,,---,0.00,VWS V14.01,2013-02-16 15:37:00,
2013-02-16 09:42:00,10.2,5.3,30.28,West,263,0.0,1.0,80,0.00,,---,0.00,VWS V14.01,2013-02-16 15:42:00,
2013-02-16 09:47:00,10.5,5.6,30.27,West,263,1.0,1.0,80,0.00,,---,0.00,VWS V14.01,2013-02-16 15:47:00,
2013-02-16 09:52:00,10.7,5.5,30.27,West,263,0.0,1.0,79,0.00,,---,0.00,VWS V14.01,2013-02-16 15:52:00,
2013-02-16 09:57:00,10.7,5.2,30.27,West,263,0.0,2.0,78,0.00,,---,0.00,VWS V14.01,2013-02-16 15:57:00,
2013-02-16 10:00:00,10.6,5.4,30.27,SW,219,1.0,2.0,79,0.00,,---,0.00,VWS V14.01,2013-02-16 16:00:00,
2013-02-16 10:02:00,10.6,5.4,30.27,South,189,1.0,2.0,79,0.00,,---,0.00,VWS V14.01,2013-02-16 16:02:00,
2013-02-16 10:07:00,10.5,5.0,30.28,WSW,249,0.0,4.0,78,0.00,,---,0.00,VWS V14.01,2013-02-16 16:07:00,
2013-02-16 10:12:00,10.8,5.6,30.28,WSW,246,0.0,4.0,79,0.00,,---,0.00,VWS V14.01,2013-02-16 16:12:00,
2013-02-16 10:17:00,11.7,6.5,30.28,WSW,247,0.0,4.0,79,0.00,,---,0.00,VWS V14.01,2013-02-16 16:17:00,
2013-02-16 10:22:00,12.3,6.5,30.28,SE,137,2.0,4.0,77,0.00,,---,0.00,VWS V14.01,2013-02-16 16:22:00,
2013-02-16 10:27:00,12.4,6.0,30.28,SW,230,0.0,4.0,75,0.00,,---,0.00,VWS V14.01,2013-02-16 16:27:00,
2013-02-16 10:30:00,12.2,5.5,30.28,WSW,254,2.0,4.0,74,0.00,,---,0.00,VWS V14.01,2013-02-16 16:30:00,
2013-02-16 10:32:00,12.3,5.6,30.28,WSW,254,1.0,4.0,74,0.00,,---,0.00,VWS V14.01,2013-02-16 16:32:00,
2013-02-16 10:37:00,12.4,6.0,30.28,WSW,254,0.0,2.0,75,0.00,,---,0.00,VWS V14.01,2013-02-16 16:37:00,
2013-02-16 10:42:00,13.0,6.3,30.27,WSW,254,0.0,2.0,74,0.00,,---,0.00,VWS V14.01,2013-02-16 16:42:00,
2013-02-16 10:47:00,12.8,5.5,30.27,WSW,244,0.0,4.0,72,0.00,,---,0.00,VWS V14.01,2013-02-16 16:47:00,
2013-02-16 10:52:00,12.5,5.8,30.27,WSW,250,1.0,4.0,74,0.00,,---,0.00,VWS V14.01,2013-02-16 16:52:00,
2013-02-16 10:57:00,12.4,5.7,30.28,WSW,252,5.0,6.0,74,0.00,,---,0.00,VWS V14.01,2013-02-16 16:57:00,
2013-02-16 11:00:00,12.6,5.9,30.27,WSW,254,5.0,6.0,74,0.00,,---,0.00,VWS V14.01,2013-02-16 17:00:00,
2013-02-16 11:02:00,12.6,5.9,30.27,WSW,241,0.0,6.0,74,0.00,,---,0.00,VWS V14.01,2013-02-16 17:02:00,
2013-02-16 11:07:00,12.6,5.6,30.27,WSW,245,2.0,5.0,73,0.00,,---,0.00,VWS V14.01,2013-02-16 17:07:00,
2013-02-16 11:12:00,12.6,5.6,30.27,WSW,255,4.0,5.0,73,0.00,,---,0.00,VWS V14.01,2013-02-16 17:12:00,
2013-02-16 11:17:00,12.6,5.6,30.27,WSW,254,5.0,6.0,73,0.00,,---,0.00,VWS V14.01,2013-02-16 17:17:00,
2013-02-16 11:22:00,12.5,5.5,30.27,WSW,252,1.0,6.0,73,0.00,,---,0.00,VWS V14.01,2013-02-16 17:22:00,
2013-02-16 11:27:00,12.8,5.5,30.27,WSW,252,1.0,6.0,72,0.00,,---,0.00,VWS V14.01,2013-02-16 17:27:00,
2013-02-16 11:30:00,13.2,6.2,30.27,WSW,252,0.0,6.0,73,0.00,,---,0.00,VWS V14.01,2013-02-16 17:30:00,
2013-02-16 11:32:00,13.1,6.1,30.27,WSW,252,0.0,6.0,73,0.00,,---,0.00,VWS V14.01,2013-02-16 17:32:00,
2013-02-16 11:37:00,13.9,6.9,30.26,WSW,252,0.0,1.0,73,0.00,,---,0.00,VWS V14.01,2013-02-16 17:37:00,
2013-02-16 11:42:00,14.6,6.6,30.26,SE,138,0.0,4.0,70,0.00,,---,0.00,VWS V14.01,2013-02-16 17:42:00,
2013-02-16 11:47:00,15.1,6.8,30.26,SSW,203,0.0,4.0,69,0.00,,---,0.00,VWS V14.01,2013-02-16 17:47:00,
2013-02-16 11:52:00,15.5,6.8,30.25,SSW,209,0.0,4.0,68,0.00,,---,0.00,VWS V14.01,2013-02-16 17:52:00,
2013-02-16 11:57:00,15.7,7.0,30.25,WSW,242,0.0,4.0,68,0.00,,---,0.00,VWS V14.01,2013-02-16 17:57:00,
2013-02-16 12:00:00,15.8,6.5,30.25,WSW,246,1.0,5.0,66,0.00,,---,0.00,VWS V14.01,2013-02-16 18:00:00,
2013-02-16 12:02:00,15.9,6.6,30.25,WSW,247,0.0,4.0,66,0.00,,---,0.00,VWS V14.01,2013-02-16 18:02:00,
2013-02-16 12:07:00,15.8,7.1,30.25,WSW,246,0.0,2.0,68,0.00,,---,0.00,VWS V14.01,2013-02-16 18:07:00,
2013-02-16 12:12:00,16.4,7.0,30.25,WSW,256,3.0,3.0,66,0.00,,---,0.00,VWS V14.01,2013-02-16 18:12:00,
2013-02-16 12:17:00,16.7,7.0,30.24,SSE,153,4.0,5.0,65,0.00,,---,0.00,VWS V14.01,2013-02-16 18:17:00,
2013-02-16 12:22:00,16.9,6.8,30.24,WSW,250,2.0,5.0,64,0.00,,---,0.00,VWS V14.01,2013-02-16 18:22:00,
2013-02-16 12:27:00,16.5,6.5,30.24,WSW,255,4.0,6.0,64,0.00,,---,0.00,VWS V14.01,2013-02-16 18:27:00,
2013-02-16 12:30:00,16.1,6.4,30.24,West,266,2.0,6.0,65,0.00,,---,0.00,VWS V14.01,2013-02-16 18:30:00,
2013-02-16 12:32:00,16.1,6.8,30.24,WSW,254,3.0,6.0,66,0.00,,---,0.00,VWS V14.01,2013-02-16 18:32:00,
2013-02-16 12:37:00,16.2,6.5,30.24,West,260,1.0,5.0,65,0.00,,---,0.00,VWS V14.01,2013-02-16 18:37:00,
2013-02-16 12:42:00,16.6,6.9,30.23,SW,227,0.0,5.0,65,0.00,,---,0.00,VWS V14.01,2013-02-16 18:42:00,
2013-02-16 12:47:00,17.0,6.9,30.23,WSW,252,3.0,5.0,64,0.00,,---,0.00,VWS V14.01,2013-02-16 18:47:00,
2013-02-16 12:52:00,17.6,7.2,30.23,WSW,252,1.0,5.0,63,0.00,,---,0.00,VWS V14.01,2013-02-16 18:52:00,
2013-02-16 12:57:00,17.9,7.4,30.23,WNW,290,1.0,5.0,63,0.00,,---,0.00,VWS V14.01,2013-02-16 18:57:00,
2013-02-16 13:00:00,18.5,7.7,30.23,WNW,284,1.0,5.0,62,0.00,,---,0.00,VWS V14.01,2013-02-16 19:00:00,
2013-02-16 13:02:00,18.4,7.6,30.23,WNW,287,0.0,5.0,62,0.00,,---,0.00,VWS V14.01,2013-02-16 19:02:00,
2013-02-16 13:07:00,18.8,7.6,30.23,WNW,284,0.0,1.0,61,0.00,,---,0.00,VWS V14.01,2013-02-16 19:07:00,
2013-02-16 13:12:00,19.1,7.5,30.22,WSW,256,3.0,5.0,60,0.00,,---,0.00,VWS V14.01,2013-02-16 19:12:00,
2013-02-16 13:17:00,19.4,7.8,30.22,South,179,0.0,5.0,60,0.00,,---,0.00,VWS V14.01,2013-02-16 19:17:00,
2013-02-16 13:22:00,19.8,7.4,30.22,SW,222,0.0,5.0,58,0.00,,---,0.00,VWS V14.01,2013-02-16 19:22:00,
2013-02-16 13:27:00,19.7,6.9,30.22,WSW,250,6.0,6.0,57,0.00,,---,0.00,VWS V14.01,2013-02-16 19:27:00,
2013-02-16 13:30:00,19.7,7.3,30.22,WSW,249,0.0,6.0,58,0.00,,---,0.00,VWS V14.01,2013-02-16 19:30:00,
2013-02-16 13:32:00,19.7,7.7,30.22,WSW,249,1.0,6.0,59,0.00,,---,0.00,VWS V14.01,2013-02-16 19:32:00,
2013-02-16 13:37:00,20.0,8.0,30.22,WSW,249,0.0,3.0,59,0.00,,---,0.00,VWS V14.01,2013-02-16 19:37:00,
2013-02-16 13:42:00,20.2,7.4,30.22,SW,222,2.0,4.0,57,0.00,,---,0.00,VWS V14.01,2013-02-16 19:42:00,
2013-02-16 13:47:00,20.4,7.2,30.21,SSE,162,2.0,4.0,56,0.00,,---,0.00,VWS V14.01,2013-02-16 19:47:00,
2013-02-16 13:52:00,20.6,7.4,30.21,WSW,253,4.0,4.0,56,0.00,,---,0.00,VWS V14.01,2013-02-16 19:52:00,
2013-02-16 13:57:00,20.4,7.2,30.21,WSW,253,1.0,4.0,56,0.00,,---,0.00,VWS V14.01,2013-02-16 19:57:00,
2013-02-16 14:00:00,20.4,6.8,30.21,WSW,253,1.0,4.0,55,0.00,,---,0.00,VWS V14.01,2013-02-16 20:00:00,
2013-02-16 14:02:00,20.5,7.3,30.21,WSW,253,2.0,4.0,56,0.00,,---,0.00,VWS V14.01,2013-02-16 20:02:00,
2013-02-16 14:07:00,20.2,7.0,30.21,West,265,1.0,4.0,56,0.00,,---,0.00,VWS V14.01,2013-02-16 20:07:00,
2013-02-16 14:12:00,20.6,7.4,30.21,WSW,252,0.0,5.0,56,0.00,,---,0.00,VWS V14.01,2013-02-16 20:12:00,
2013-02-16 14:17:00,21.1,7.5,30.21,South,180,0.0,5.0,55,0.00,,---,0.00,VWS V14.01,2013-02-16 20:17:00,
2013-02-16 14:22:00,21.2,7.2,30.20,South,171,0.0,5.0,54,0.00,,---,0.00,VWS V14.01,2013-02-16 20:22:00,
2013-02-16 14:27:00,21.3,7.3,30.20,SW,219,0.0,5.0,54,0.00,,---,0.00,VWS V14.01,2013-02-16 20:27:00,
2013-02-16 14:30:00,21.2,7.2,30.21,WSW,242,0.0,5.0,54,0.00,,---,0.00,VWS V14.01,2013-02-16 20:30:00,
2013-02-16 14:32:00,21.3,7.3,30.20,SW,233,3.0,5.0,54,0.00,,---,0.00,VWS V14.01,2013-02-16 20:32:00,
2013-02-16 14:37:00,21.0,7.0,30.20,South,186,0.0,4.0,54,0.00,,---,0.00,VWS V14.01,2013-02-16 20:37:00,
2013-02-16 14:42:00,20.7,7.1,30.20,SSW,210,1.0,4.0,55,0.00,,---,0.00,VWS V14.01,2013-02-16 20:42:00,
2013-02-16 14:47:00,20.5,6.9,30.20,WSW,253,4.0,4.0,55,0.00,,---,0.00,VWS V14.01,2013-02-16 20:47:00,
2013-02-16 14:52:00,20.4,7.2,30.20,WSW,253,0.0,4.0,56,0.00,,---,0.00,VWS V14.01,2013-02-16 20:52:00,
2013-02-16 14:57:00,20.4,7.2,30.20,West,261,2.0,4.0,56,0.00,,---,0.00,VWS V14.01,2013-02-16 20:57:00,
2013-02-16 15:00:00,20.9,8.1,30.20,WSW,258,1.0,4.0,57,0.00,,---,0.00,VWS V14.01,2013-02-16 21:00:00,
2013-02-16 15:02:00,20.8,8.0,30.20,West,261,0.0,4.0,57,0.00,,---,0.00,VWS V14.01,2013-02-16 21:02:00,
2013-02-16 15:07:00,20.9,6.9,30.21,WSW,246,2.0,4.0,54,0.00,,---,0.00,VWS V14.01,2013-02-16 21:07:00,
2013-02-16 15:11:00,21.2,7.6,30.21,West,259,3.0,5.0,55,0.00,,---,0.00,VWS V14.01,2013-02-16 21:11:00,
2013-02-16 15:16:00,21.5,7.8,30.20,WSW,252,0.0,6.0,55,0.00,,---,0.00,VWS V14.01,2013-02-16 21:16:00,
2013-02-16 15:21:00,22.0,7.1,30.21,SSW,200,1.0,6.0,52,0.00,,---,0.00,VWS V14.01,2013-02-16 21:21:00,
2013-02-16 15:26:00,22.2,7.3,30.20,South,190,1.0,6.0,52,0.00,,---,0.00,VWS V14.01,2013-02-16 21:26:00,
2013-02-16 15:30:00,22.3,7.4,30.20,SW,225,0.0,6.0,52,0.00,,---,0.00,VWS V14.01,2013-02-16 21:30:00,
2013-02-16 15:31:00,22.3,6.9,30.20,SW,225,0.0,6.0,51,0.00,,---,0.00,VWS V14.01,2013-02-16 21:31:00,
2013-02-16 15:36:00,22.7,7.7,30.20,SW,225,0.0,0.0,52,0.00,,---,0.00,VWS V14.01,2013-02-16 21:36:00,
2013-02-16 15:41:00,23.3,7.4,30.20,SW,234,0.0,4.0,50,0.00,,---,0.00,VWS V14.01,2013-02-16 21:41:00,
2013-02-16 15:46:00,23.2,7.3,30.20,WSW,246,0.0,4.0,50,0.00,,---,0.00,VWS V14.01,2013-02-16 21:46:00,
2013-02-16 15:51:00,23.0,6.7,30.20,SSE,168,1.0,4.0,49,0.00,,---,0.00,VWS V14.01,2013-02-16 21:51:00,
2013-02-16 15:56:00,22.8,6.5,30.20,ESE,115,0.0,4.0,49,0.00,,---,0.00,VWS V14.01,2013-02-16 21:56:00,
2013-02-16 16:00:00,22.6,6.8,30.20,ESE,109,0.0,4.0,50,0.00,,---,0.00,VWS V14.01,2013-02-16 22:00:00,
2013-02-16 16:01:00,22.6,6.8,30.20,SW,214,0.0,4.0,50,0.00,,---,0.00,VWS V14.01,2013-02-16 22:01:00,
2013-02-16 16:06:00,22.4,6.6,30.20,South,176,1.0,4.0,50,0.00,,---,0.00,VWS V14.01,2013-02-16 22:06:00,
2013-02-16 16:11:00,21.9,6.1,30.21,SE,130,2.0,4.0,50,0.00,,---,0.00,VWS V14.01,2013-02-16 22:11:00,
2013-02-16 16:16:00,21.6,6.7,30.21,ESE,120,0.0,4.0,52,0.00,,---,0.00,VWS V14.01,2013-02-16 22:16:00,
2013-02-16 16:21:00,21.4,6.5,30.21,ESE,107,0.0,4.0,52,0.00,,---,0.00,VWS V14.01,2013-02-16 22:21:00,
2013-02-16 16:26:00,21.3,6.4,30.21,ESE,105,0.0,4.0,52,0.00,,---,0.00,VWS V14.01,2013-02-16 22:26:00,
2013-02-16 16:30:00,18.6,5.1,30.21,SE,139,0.0,4.0,55,0.00,,---,0.00,VWS V14.01,2013-02-16 22:30:00,
2013-02-16 16:31:00,21.3,6.4,30.20,ESE,105,0.0,4.0,52,0.00,,---,0.00,VWS V14.01,2013-02-16 22:31:00,
2013-02-16 16:36:00,21.5,7.4,30.21,ESE,123,0.0,2.0,54,0.00,,---,0.00,VWS V14.01,2013-02-16 22:36:00,
2013-02-16 16:41:00,21.4,7.3,30.21,East,98,0.0,2.0,54,0.00,,---,0.00,VWS V14.01,2013-02-16 22:41:00,
2013-02-16 16:46:00,21.3,6.4,30.21,ESE,113,1.0,2.0,52,0.00,,---,0.00,VWS V14.01,2013-02-16 22:46:00,
2013-02-16 16:51:00,21.1,6.2,30.20,East,87,3.0,3.0,52,0.00,,---,0.00,VWS V14.01,2013-02-16 22:51:00,
2013-02-16 16:56:00,20.7,6.7,30.20,SE,137,0.0,4.0,54,0.00,,---,0.00,VWS V14.01,2013-02-16 22:56:00,
2013-02-16 17:00:00,20.0,5.6,30.21,ESE,109,0.0,5.0,53,0.00,,---,0.00,VWS V14.01,2013-02-16 23:00:00,
2013-02-16 17:01:00,20.2,5.4,30.21,ESE,109,0.0,5.0,52,0.00,,---,0.00,VWS V14.01,2013-02-16 23:01:00,
2013-02-16 17:07:00,19.8,6.3,30.21,East,92,1.0,4.0,55,0.00,,---,0.00,VWS V14.01,2013-02-16 23:07:00,
2013-02-16 17:11:00,19.7,5.3,30.21,ESE,120,0.0,4.0,53,0.00,,---,0.00,VWS V14.01,2013-02-16 23:11:00,
2013-02-16 17:16:00,19.5,5.6,30.21,ESE,119,0.0,4.0,54,0.00,,---,0.00,VWS V14.01,2013-02-16 23:16:00,
2013-02-16 17:21:00,19.3,5.4,30.21,ESE,119,0.0,4.0,54,0.00,,---,0.00,VWS V14.01,2013-02-16 23:21:00,
2013-02-16 17:26:00,19.0,5.1,30.21,SE,142,0.0,4.0,54,0.00,,---,0.00,VWS V14.01,2013-02-16 23:26:00,
2013-02-16 17:30:00,18.6,5.1,30.21,SE,139,0.0,4.0,55,0.00,,---,0.00,VWS V14.01,2013-02-16 23:30:00,
2013-02-16 17:31:00,18.7,4.8,30.21,SE,139,0.0,4.0,54,0.00,,---,0.00,VWS V14.01,2013-02-16 23:31:00,
2013-02-16 17:36:00,18.3,4.8,30.21,SE,138,0.0,0.0,55,0.00,,---,0.00,VWS V14.01,2013-02-16 23:36:00,
2013-02-16 17:41:00,17.9,4.9,30.21,SE,141,0.0,0.0,56,0.00,,---,0.00,VWS V14.01,2013-02-16 23:41:00,
2013-02-16 17:46:00,17.5,4.5,30.21,SE,141,0.0,0.0,56,0.00,,---,0.00,VWS V14.01,2013-02-16 23:46:00,
2013-02-16 17:51:00,17.1,4.5,30.22,SE,141,0.0,0.0,57,0.00,,---,0.00,VWS V14.01,2013-02-16 23:51:00,
2013-02-16 17:56:00,16.7,3.7,30.22,SE,141,0.0,0.0,56,0.00,,---,0.00,VWS V14.01,2013-02-16 23:56:00,
2013-02-16 18:00:00,16.3,4.5,30.22,SSW,210,0.0,2.0,59,0.00,,---,0.00,VWS V14.01,2013-02-17 00:00:00,
2013-02-16 18:01:00,16.4,4.2,30.22,SSW,210,1.0,2.0,58,0.00,,---,0.00,VWS V14.01,2013-02-17 00:01:00,
2013-02-16 18:06:00,16.2,4.8,30.22,SSW,210,0.0,0.0,60,0.00,,---,0.00,VWS V14.01,2013-02-17 00:06:00,
2013-02-16 18:11:00,16.0,4.9,30.22,SSW,210,0.0,0.0,61,0.00,,---,0.00,VWS V14.01,2013-02-17 00:11:00,
2013-02-16 18:16:00,15.7,4.3,30.22,SSW,210,0.0,0.0,60,0.00,,---,0.00,VWS V14.01,2013-02-17 00:16:00,
2013-02-16 18:21:00,15.3,4.6,30.22,SSW,210,0.0,0.0,62,0.00,,---,0.00,VWS V14.01,2013-02-17 00:21:00,
2013-02-16 18:26:00,14.9,4.6,30.22,SSW,207,0.0,0.0,63,0.00,,---,0.00,VWS V14.01,2013-02-17 00:26:00,
2013-02-16 18:30:00,14.5,4.6,30.22,SSW,207,0.0,1.0,64,0.00,,---,0.00,VWS V14.01,2013-02-17 00:30:00,
2013-02-16 18:31:00,14.6,4.7,30.22,SSW,207,0.0,1.0,64,0.00,,---,0.00,VWS V14.01,2013-02-17 00:31:00,
2013-02-16 18:36:00,14.4,4.8,30.22,SSW,205,0.0,1.0,65,0.00,,---,0.00,VWS V14.01,2013-02-17 00:36:00,
2013-02-16 18:41:00,14.2,4.6,30.22,SSW,206,0.0,1.0,65,0.00,,---,0.00,VWS V14.01,2013-02-17 00:41:00,
2013-02-16 18:46:00,14.0,4.4,30.22,SSW,206,0.0,1.0,65,0.00,,---,0.00,VWS V14.01,2013-02-17 00:46:00,
2013-02-16 18:51:00,13.7,4.1,30.22,SSW,207,0.0,1.0,65,0.00,,---,0.00,VWS V14.01,2013-02-17 00:51:00,
2013-02-16 18:56:00,13.4,4.2,30.23,SSW,207,0.0,1.0,66,0.00,,---,0.00,VWS V14.01,2013-02-17 00:56:00,
2013-02-16 19:00:00,13.1,4.2,30.23,SSW,206,0.0,1.0,67,0.00,,---,0.00,VWS V14.01,2013-02-17 01:00:00,
2013-02-16 19:01:00,13.1,4.2,30.23,SSW,206,0.0,1.0,67,0.00,,---,0.00,VWS V14.01,2013-02-17 01:01:00,
2013-02-16 19:06:00,13.0,4.1,30.22,SSW,207,0.0,0.0,67,0.00,,---,0.00,VWS V14.01,2013-02-17 01:06:00,
2013-02-16 19:11:00,12.8,3.9,30.22,SSW,207,0.0,0.0,67,0.00,,---,0.00,VWS V14.01,2013-02-17 01:11:00,
2013-02-16 19:16:00,12.6,4.1,30.22,SSW,206,0.0,0.0,68,0.00,,---,0.00,VWS V14.01,2013-02-17 01:16:00,
2013-02-16 19:21:00,12.4,4.2,30.22,SSW,207,0.0,0.0,69,0.00,,---,0.00,VWS V14.01,2013-02-17 01:21:00,
2013-02-16 19:26:00,12.2,4.0,30.22,SSW,200,0.0,1.0,69,0.00,,---,0.00,VWS V14.01,2013-02-17 01:26:00,
2013-02-16 19:30:00,11.9,3.7,30.22,SSW,200,0.0,1.0,69,0.00,,---,0.00,VWS V14.01,2013-02-17 01:30:00,
2013-02-16 19:31:00,12.0,3.8,30.22,SSW,200,0.0,1.0,69,0.00,,---,0.00,VWS V14.01,2013-02-17 01:31:00,
2013-02-16 19:36:00,11.8,3.9,30.22,SSW,200,0.0,0.0,70,0.00,,---,0.00,VWS V14.01,2013-02-17 01:36:00,
2013-02-16 19:41:00,11.6,3.7,30.22,SSW,200,0.0,0.0,70,0.00,,---,0.00,VWS V14.01,2013-02-17 01:41:00,
2013-02-16 19:46:00,11.3,3.7,30.22,SSW,200,0.0,0.0,71,0.00,,---,0.00,VWS V14.01,2013-02-17 01:46:00,
2013-02-16 19:51:00,11.1,3.5,30.22,SSW,200,0.0,0.0,71,0.00,,---,0.00,VWS V14.01,2013-02-17 01:51:00,
2013-02-16 19:56:00,10.7,3.2,30.22,SSW,200,0.0,0.0,71,0.00,,---,0.00,VWS V14.01,2013-02-17 01:56:00,
2013-02-16 20:00:00,10.2,2.7,30.23,SSW,200,0.0,0.0,71,0.00,,---,0.00,VWS V14.01,2013-02-17 02:00:00,
2013-02-16 20:01:00,10.3,2.8,30.23,SSW,200,0.0,0.0,71,0.00,,---,0.00,VWS V14.01,2013-02-17 02:01:00,
2013-02-16 20:06:00,9.9,2.7,30.22,SSW,200,0.0,0.0,72,0.00,,---,0.00,VWS V14.01,2013-02-17 02:06:00,
2013-02-16 20:11:00,9.5,2.3,30.22,SSW,200,0.0,0.0,72,0.00,,---,0.00,VWS V14.01,2013-02-17 02:11:00,
2013-02-16 20:16:00,9.1,1.9,30.22,SSW,200,0.0,0.0,72,0.00,,---,0.00,VWS V14.01,2013-02-17 02:16:00,
2013-02-16 20:21:00,8.7,1.8,30.22,South,182,0.0,1.0,73,0.00,,---,0.00,VWS V14.01,2013-02-17 02:21:00,
2013-02-16 20:26:00,8.3,1.7,30.22,South,182,0.0,1.0,74,0.00,,---,0.00,VWS V14.01,2013-02-17 02:26:00,
2013-02-16 20:30:00,8.0,1.7,30.22,South,182,0.0,1.0,75,0.00,,---,0.00,VWS V14.01,2013-02-17 02:30:00,
2013-02-16 20:31:00,8.1,1.8,30.22,South,182,0.0,1.0,75,0.00,,---,0.00,VWS V14.01,2013-02-17 02:31:00,
2013-02-16 20:36:00,7.9,1.9,30.22,South,182,0.0,0.0,76,0.00,,---,0.00,VWS V14.01,2013-02-17 02:36:00,
2013-02-16 20:41:00,7.9,2.2,30.23,South,181,0.0,0.0,77,0.00,,---,0.00,VWS V14.01,2013-02-17 02:41:00,
2013-02-16 20:46:00,8.1,2.4,30.23,South,181,0.0,0.0,77,0.00,,---,0.00,VWS V14.01,2013-02-17 02:46:00,
2013-02-16 20:51:00,8.3,2.6,30.23,South,180,0.0,0.0,77,0.00,,---,0.00,VWS V14.01,2013-02-17 02:51:00,
2013-02-16 20:56:00,8.4,2.7,30.23,South,180,0.0,0.0,77,0.00,,---,0.00,VWS V14.01,2013-02-17 02:56:00,
2013-02-16 21:00:00,8.5,2.8,30.22,South,181,0.0,0.0,77,0.00,,---,0.00,VWS V14.01,2013-02-17 03:00:00,
2013-02-16 21:01:00,8.5,2.8,30.22,South,180,0.0,0.0,77,0.00,,---,0.00,VWS V14.01,2013-02-17 03:01:00,
2013-02-16 21:06:00,8.6,2.9,30.22,South,180,0.0,0.0,77,0.00,,---,0.00,VWS V14.01,2013-02-17 03:06:00,
2013-02-16 21:11:00,8.7,3.0,30.22,South,181,0.0,0.0,77,0.00,,---,0.00,VWS V14.01,2013-02-17 03:11:00,
2013-02-16 21:16:00,8.8,3.1,30.21,South,181,0.0,0.0,77,0.00,,---,0.00,VWS V14.01,2013-02-17 03:16:00,
2013-02-16 21:21:00,8.8,3.1,30.22,South,180,0.0,0.0,77,0.00,,---,0.00,VWS V14.01,2013-02-17 03:21:00,
2013-02-16 21:26:00,8.8,3.1,30.22,South,181,0.0,0.0,77,0.00,,---,0.00,VWS V14.01,2013-02-17 03:26:00,
2013-02-16 21:30:00,8.9,3.2,30.22,South,180,0.0,0.0,77,0.00,,---,0.00,VWS V14.01,2013-02-17 03:30:00,
2013-02-16 21:31:00,8.9,3.2,30.22,South,181,0.0,0.0,77,0.00,,---,0.00,VWS V14.01,2013-02-17 03:31:00,
2013-02-16 21:36:00,8.9,3.2,30.21,South,180,0.0,0.0,77,0.00,,---,0.00,VWS V14.01,2013-02-17 03:36:00,
2013-02-16 21:41:00,9.0,3.5,30.21,SSE,154,0.0,1.0,78,0.00,,---,0.00,VWS V14.01,2013-02-17 03:41:00,
2013-02-16 21:46:00,9.3,3.8,30.21,SSE,153,0.0,1.0,78,0.00,,---,0.00,VWS V14.01,2013-02-17 03:46:00,
2013-02-16 21:51:00,9.4,3.9,30.20,SSE,153,0.0,1.0,78,0.00,,---,0.00,VWS V14.01,2013-02-17 03:51:00,
2013-02-16 21:56:00,9.5,4.0,30.20,SSE,153,0.0,1.0,78,0.00,,---,0.00,VWS V14.01,2013-02-17 03:56:00,
2013-02-16 22:00:00,9.5,3.8,30.20,SSE,152,0.0,1.0,77,0.00,,---,0.00,VWS V14.01,2013-02-17 04:00:00,
2013-02-16 22:01:00,9.6,3.8,30.20,SSE,153,0.0,1.0,77,0.00,,---,0.00,VWS V14.01,2013-02-17 04:01:00,
2013-02-16 22:06:00,9.6,4.1,30.20,SSE,153,0.0,0.0,78,0.00,,---,0.00,VWS V14.01,2013-02-17 04:06:00,
2013-02-16 22:11:00,9.6,3.8,30.20,SSE,152,0.0,0.0,77,0.00,,---,0.00,VWS V14.01,2013-02-17 04:11:00,
2013-02-16 22:16:00,9.6,4.1,30.20,SSE,153,0.0,0.0,78,0.00,,---,0.00,VWS V14.01,2013-02-17 04:16:00,
2013-02-16 22:21:00,9.6,4.1,30.19,SSE,159,0.0,2.0,78,0.00,,---,0.00,VWS V14.01,2013-02-17 04:21:00,
2013-02-16 22:26:00,9.5,4.0,30.19,SSE,159,0.0,2.0,78,0.00,,---,0.00,VWS V14.01,2013-02-17 04:26:00,
2013-02-16 22:30:00,9.5,4.0,30.19,SW,236,0.0,2.0,78,0.00,,---,0.00,VWS V14.01,2013-02-17 04:30:00,
2013-02-16 22:31:00,9.5,4.0,30.19,SW,236,0.0,2.0,78,0.00,,---,0.00,VWS V14.01,2013-02-17 04:31:00,
2013-02-16 22:36:00,9.5,4.0,30.19,SW,236,0.0,2.0,78,0.00,,---,0.00,VWS V14.01,2013-02-17 04:36:00,
2013-02-16 22:41:00,9.6,4.1,30.19,SW,236,0.0,2.0,78,0.00,,---,0.00,VWS V14.01,2013-02-17 04:41:00,
2013-02-16 22:46:00,9.6,4.1,30.19,SW,236,0.0,2.0,78,0.00,,---,0.00,VWS V14.01,2013-02-17 04:46:00,
2013-02-16 22:51:00,9.7,4.2,30.19,SW,236,0.0,2.0,78,0.00,,---,0.00,VWS V14.01,2013-02-17 04:51:00,
2013-02-16 22:56:00,9.8,4.3,30.19,SE,126,0.0,2.0,78,0.00,,---,0.00,VWS V14.01,2013-02-17 04:56:00,
2013-02-16 23:00:00,9.9,4.4,30.19,SE,126,0.0,2.0,78,0.00,,---,0.00,VWS V14.01,2013-02-17 05:00:00,
2013-02-16 23:05:00,9.9,4.4,30.18,SE,126,0.0,0.0,78,0.00,,---,0.00,VWS V14.01,2013-02-17 05:05:00,
2013-02-16 23:10:00,9.9,4.4,30.17,SE,126,0.0,1.0,78,0.00,,---,0.00,VWS V14.01,2013-02-17 05:10:00,
2013-02-16 23:15:00,9.9,4.4,30.17,SE,126,0.0,1.0,78,0.00,,---,0.00,VWS V14.01,2013-02-17 05:15:00,
2013-02-16 23:20:00,9.9,4.4,30.17,SE,145,0.0,1.0,78,0.00,,---,0.00,VWS V14.01,2013-02-17 05:20:00,
2013-02-16 23:25:00,9.9,4.4,30.17,SSE,147,0.0,1.0,78,0.00,,---,0.00,VWS V14.01,2013-02-17 05:25:00,
2013-02-16 23:30:00,9.9,4.4,30.17,SE,146,0.0,1.0,78,0.00,,---,0.00,VWS V14.01,2013-02-17 05:30:00,
2013-02-16 23:35:00,9.9,4.4,30.17,SSE,147,0.0,0.0,78,0.00,,---,0.00,VWS V14.01,2013-02-17 05:35:00,
2013-02-16 23:40:00,9.9,4.4,30.17,SSE,147,0.0,0.0,78,0.00,,---,0.00,VWS V14.01,2013-02-17 05:40:00,
2013-02-16 23:45:00,10.0,4.5,30.17,SSE,147,0.0,0.0,78,0.00,,---,0.00,VWS V14.01,2013-02-17 05:45:00,
2013-02-16 23:50:00,10.0,4.5,30.17,SE,146,0.0,0.0,78,0.00,,---,0.00,VWS V14.01,2013-02-17 05:50:00,
2013-02-16 23:55:00,10.0,4.5,30.17,SE,146,0.0,0.0,78,0.00,,---,0.00,VWS V14.01,2013-02-17 05:55:00,